Aeroporto :
LOGIN :

Iscrizione | Disclaimer

   EN    FR    IT 

 










Sommario :    VFR   VFR Marginale   IFR   IFR Intensivo   IFR Molto Intensivo
Visibilità : 
Base nubi : 
>= 8 km
>= 3000ft
5 / 8 km
1000 / 3000 ft
1500m / 5 km
500 / 1000 ft
800 / 1500m
200 / 500 ft
< 800m
< 200 ft
Simboli :   Temporali  Nebbia  Neve Forte  Precipitazioni Forti  Vento > 20 kt
SIGMETs :   Varie  Temporali  Ghiacco  Turbolenza  Onda orograficha  Ceneri Vulcaniche






- Altitudine del aeroporto : 68 ft
- Codice IATA : AGH


ESTA - Ängelholm-Helsingborg

ULTIMO METAR :
  • 301950Z AUTO 05005KT 9999 NCD M01/M11 Q1029

METARs OBSOLETI :
  • 301920Z AUTO 06005KT 9999 NCD M00/M11 Q1028
  • 301850Z AUTO 06008KT 9999 NCD 01/M11 Q1028
  • 301820Z AUTO 06008KT 9999 NCD 01/M12 Q1027
  • 301750Z 07007KT CAVOK 03/M13 Q1027

Previsioni scadute.



MetMap, La meteo Aeronautica in un colpo d'occhio ! - Copyright ORBIFLY Dicembre 2007 - Disclaimer

ORBIFLY MET'MAP TEAM :

Programmazione e sviluppo : Alexandra Zaïnal
Concezione : Baudouin d'Aumeries
Aiuto per la programmazione : Marc-Olivier Méhu
Supporto tecnico e logistico : Manuel Goepfert
Aiuto per la traduzione : Arnaldo La Scala

Contatto : metmap@orbifly.com




FONTI E CREDITI :

   NOAA